{"data":{"norad_id":57751,"epoch":"2026-05-24T22:47:16.605600Z","epoch_age_seconds":86146,"freshness":"FRESH","line1":"1 57751U 23131V   26144.94949775  .00015121  00000+0  51705-3 0  9996","line2":"2 57751  43.0001  86.1063 0001878 204.7276 155.3487 15.30068023151762","mean_motion":15.30068023,"eccentricity":0.0001878,"inclination_deg":43.0001,"raan_deg":86.1063,"arg_perigee_deg":204.7276,"mean_anomaly_deg":155.3487,"bstar":0.00051705,"rev_number":15176,"period_min":94.113462823476,"perigee_km":474.32202374859,"apogee_km":476.89629080526,"semimajor_km":6853.7461572769,"source":"CELESTRAK","updated_at":"2026-05-25T13:38:18.402775Z"}}